Location: Unspecified
(0.0000°N, 0.0000°E)
Time: 14:26:56
(UTC+00:00)

Altair - Pass Details

Date: 28 October 2021
Orbit: 1502 x 1682 km, 47.2° (Epoch: 26 November)

Event Time Altitude Azimuth Distance (km) Brightness Sun altitude
Rises 20:15:54 0° 192° (SSW) 4,716 10.4 -36.8°
Reaches altitude 10° 20:20:25 10° 173° (S) 3,702 9.6 -37.9°
Enters shadow 20:22:51 15° 159° (SSE) 3,316 9.2 -38.5°
Maximum altitude 20:26:12 18° 134° (SE) 3,091 - -39.3°
Drops below altitude 10° 20:31:53 10° 95° (E) 3,651 - -40.6°
Sets 20:36:13 0° 77° (ENE) 4,626 - -41.7°
